Total_Precipitation_Accumulation
0.78 0.78 0.78 0.76 0.74 0.74 0.74 0.71 0.72 0.76 0.74 0.77 0.92 0.96 1.01 1.07 1.23 1.48 1.64 1.66 1.58 1.56 1.54 1.59 1.71 1.81 2.03 2.01 1.90 1.78 1.63 1.44 1.24 1.07 0.86 0.66 0.71 0.75 0.78 0.70 0.63 0.58 0.46
0.88 0.86 0.78 0.70 0.67 0.67 0.64 0.57 0.56 0.53 0.52 0.62 0.74 0.78 0.82 0.84 0.98 1.25 1.44 1.48 1.43 1.36 1.34 1.40 1.58 1.74 1.95 2.05 2.02 1.90 1.78 1.64 1.47 1.34 1.15 0.92 0.81 0.80 0.87 0.91 0.84 0.76 0.67
0.92 0.82 0.74 0.68 0.59 0.55 0.49 0.45 0.50 0.51 0.55 0.64 0.72 0.77 0.80 0.83 0.82 0.90 1.02 1.15 1.17 1.13 1.13 1.13 1.17 1.32 1.58 1.77 1.85 1.88 1.91 1.86 1.76 1.58 1.35 1.18 1.03 0.90 0.90 0.92 0.89 0.91 0.84
1.06 0.96 0.85 0.73 0.62 0.56 0.49 0.45 0.43 0.45 0.51 0.56 0.60 0.68 0.77 0.80 0.77 0.76 0.78 0.83 0.84 0.89 0.94 0.96 0.99 1.03 1.18 1.34 1.47 1.67 1.89 1.88 1.86 1.77 1.54 1.28 1.12 1.00 1.01 1.03 1.03 1.00 0.96
1.08 1.07 0.93 0.74 0.61 0.54 0.50 0.43 0.40 0.41 0.42 0.47 0.52 0.55 0.61 0.68 0.72 0.73 0.63 0.59 0.64 0.70 0.74 0.75 0.76 0.84 0.93 1.00 1.07 1.36 1.67 1.80 1.77 1.73 1.62 1.42 1.17 1.06 0.96 0.92 1.02 1.17 1.16
0.99 0.97 0.75 0.58 0.46 0.41 0.41 0.39 0.35 0.34 0.39 0.44 0.44 0.46 0.56 0.57 0.67 0.65 0.50 0.48 0.51 0.61 0.69 0.67 0.60 0.59 0.63 0.69 0.77 0.91 1.13 1.34 1.56 1.68 1.64 1.45 1.25 1.10 1.04 1.02 1.04 1.10 1.17
0.64 0.60 0.51 0.40 0.38 0.41 0.43 0.37 0.34 0.34 0.35 0.38 0.39 0.40 0.45 0.57 0.58 0.42 0.39 0.42 0.50 0.56 0.63 0.68 0.61 0.52 0.56 0.57 0.66 0.73 0.72 0.80 1.04 1.30 1.43 1.42 1.45 1.26 1.17 1.10 1.03 1.08 1.09
0.40 0.40 0.34 0.30 0.31 0.34 0.35 0.34 0.40 0.44 0.42 0.42 0.44 0.44 0.44 0.49 0.46 0.33 0.34 0.38 0.45 0.51 0.60 0.68 0.73 0.65 0.64 0.72 0.70 0.72 0.67 0.64 0.79 0.79 0.93 1.22 1.35 1.38 1.30 1.31 1.42 1.34 1.18
0.12 0.13 0.12 0.12 0.13 0.14 0.16 0.22 0.33 0.40 0.42 0.44 0.48 0.48 0.43 0.40 0.39 0.30 0.29 0.38 0.46 0.52 0.55 0.61 0.67 0.64 0.75 0.82 0.80 0.89 0.86 0.76 0.88 0.91 0.92 0.94 1.00 1.09 1.18 1.21 1.27 1.30 1.27
0.01 0.01 0.01 0.02 0.02 0.04 0.06 0.09 0.15 0.19 0.24 0.32 0.34 0.38 0.41 0.38 0.46 0.33 0.32 0.38 0.49 0.60 0.63 0.62 0.75 0.73 0.76 0.74 0.71 0.91 0.93 0.82 0.73 0.76 0.75 0.69 0.64 0.71 0.86 0.97 1.11 1.15 1.09
0.00 0.00 0.00 0.00 0.00 0.01 0.02 0.03 0.06 0.08 0.12 0.17 0.21 0.27 0.34 0.39 0.46 0.43 0.46 0.48 0.54 0.68 0.70 0.63 0.57 0.66 0.54 0.57 0.59 0.64 0.85 0.85 0.73 0.74 0.72 0.65 0.59 0.59 0.64 0.72 0.88 1.00 0.98
0.00 0.00 0.00 0.00 0.00 0.01 0.01 0.02 0.02 0.03 0.06 0.09 0.11 0.15 0.22 0.27 0.33 0.38 0.38 0.41 0.47 0.60 0.68 0.57 0.54 0.61 0.46 0.44 0.46 0.54 0.65 0.73 0.70 0.71 0.68 0.66 0.60 0.52 0.52 0.58 0.63 0.66 0.65
0.00 0.00 0.00 0.00 0.01 0.01 0.01 0.01 0.02 0.03 0.05 0.06 0.09 0.15 0.21 0.28 0.29 0.25 0.22 0.24 0.29 0.43 0.49 0.50 0.50 0.47 0.43 0.39 0.41 0.47 0.53 0.61 0.71 0.68 0.59 0.58 0.54 0.51 0.48 0.48 0.51 0.54 0.54
0.00 0.00 0.00 0.01 0.01 0.01 0.02 0.03 0.03 0.04 0.05 0.09 0.13 0.18 0.23 0.26 0.28 0.25 0.26 0.28 0.27 0.32 0.34 0.34 0.37 0.39 0.43 0.42 0.39 0.42 0.48 0.58 0.61 0.56 0.48 0.46 0.48 0.49 0.52 0.52 0.52 0.55 0.59
0.00 0.00 0.00 0.00 0.01 0.01 0.01 0.01 0.02 0.03 0.04 0.10 0.17 0.21 0.21 0.21 0.15 0.14 0.24 0.34 0.40 0.46 0.53 0.48 0.49 0.50 0.47 0.41 0.39 0.39 0.42 0.46 0.45 0.41 0.38 0.35 0.34 0.37 0.42 0.46 0.48 0.47 0.49
0.00 0.00 0.00 0.00 0.01 0.01 0.01 0.01 0.01 0.02 0.05 0.07 0.07 0.09 0.10 0.09 0.09 0.10 0.16 0.26 0.34 0.44 0.60 0.65 0.69 0.69 0.63 0.53 0.43 0.36 0.32 0.33 0.35 0.36 0.36 0.35 0.33 0.33 0.36 0.36 0.39 0.38 0.38
0.00 0.00 0.00 0.00 0.01 0.01 0.02 0.04 0.05 0.04 0.02 0.01 0.01 0.02 0.08 0.15 0.19 0.23 0.24 0.27 0.30 0.42 0.61 0.68 0.69 0.66 0.58 0.52 0.46 0.37 0.31 0.28 0.29 0.29 0.29 0.29 0.29 0.30 0.32 0.31 0.30 0.30 0.30
0.00 0.00 0.00 0.03 0.05 0.05 0.05 0.09 0.13 0.17 0.14 0.07 0.01 0.01 0.04 0.11 0.15 0.18 0.24 0.36 0.39 0.45 0.53 0.54 0.53 0.41 0.32 0.29 0.25 0.21 0.18 0.17 0.19 0.19 0.17 0.18 0.20 0.20 0.21 0.23 0.25 0.27 0.26
0.00 0.01 0.03 0.07 0.09 0.07 0.08 0.13 0.14 0.10 0.08 0.07 0.04 0.02 0.01 0.04 0.06 0.08 0.16 0.34 0.35 0.29 0.24 0.20 0.18 0.15 0.11 0.10 0.10 0.10 0.09 0.08 0.08 0.08 0.07 0.07 0.09 0.11 0.12 0.14 0.17 0.21 0.24
0.00 0.00 0.02 0.07 0.09 0.07 0.07 0.07 0.07 0.05 0.03 0.04 0.04 0.04 0.04 0.05 0.07 0.08 0.09 0.14 0.12 0.08 0.07 0.07 0.06 0.05 0.05 0.05 0.04 0.04 0.04 0.04 0.04 0.05 0.04 0.05 0.06 0.07 0.09 0.12 0.16 0.18 0.19
0.00 0.00 0.00 0.03 0.05 0.04 0.03 0.03 0.03 0.02 0.02 0.03 0.02 0.01 0.03 0.07 0.08 0.07 0.07 0.06 0.05 0.04 0.04 0.06 0.04 0.03 0.03 0.03 0.04 0.04 0.04 0.04 0.04 0.04 0.04 0.05 0.06 0.07 0.09 0.13 0.17 0.20 0.21
0.00 0.01 0.02 0.04 0.04 0.02 0.02 0.03 0.05 0.04 0.02 0.03 0.03 0.02 0.03 0.06 0.07 0.06 0.06 0.06 0.04 0.04 0.06 0.08 0.07 0.06 0.05 0.05 0.05 0.04 0.05 0.05 0.05 0.04 0.04 0.04 0.05 0.06 0.07 0.11 0.14 0.18 0.23
0.00 0.00 0.01 0.03 0.03 0.01 0.01 0.03 0.04 0.04 0.02 0.02 0.03 0.04 0.04 0.06 0.06 0.07 0.07 0.07 0.08 0.08 0.08 0.09 0.11 0.10 0.08 0.06 0.07 0.07 0.07 0.06 0.06 0.06 0.06 0.06 0.06 0.07 0.08 0.08 0.10 0.12 0.16
0.00 0.00 0.01 0.02 0.02 0.01 0.02 0.03 0.04 0.03 0.03 0.04 0.05 0.05 0.05 0.06 0.04 0.04 0.05 0.06 0.08 0.09 0.08 0.07 0.08 0.07 0.07 0.07 0.08 0.09 0.12 0.12 0.08 0.07 0.07 0.08 0.09 0.09 0.12 0.14 0.18 0.19 0.20
0.00 0.00 0.01 0.02 0.02 0.01 0.01 0.02 0.03 0.03 0.03 0.04 0.04 0.03 0.03 0.04 0.03 0.03 0.04 0.05 0.07 0.08 0.07 0.07 0.08 0.07 0.06 0.06 0.07 0.09 0.14 0.16 0.13 0.11 0.09 0.08 0.10 0.13 0.17 0.24 0.29 0.31 0.32
0.00 0.00 0.00 0.01 0.01 0.01 0.01 0.02 0.03 0.02 0.02 0.02 0.02 0.02 0.03 0.03 0.02 0.02 0.03 0.03 0.04 0.05 0.04 0.05 0.07 0.06 0.06 0.07 0.08 0.12 0.15 0.14 0.13 0.12 0.09 0.07 0.09 0.11 0.13 0.15 0.19 0.24 0.27